Weather History for Pipestone, MN

Change the Weather History Date:

Sunday, February 3, 2013

  Actual Average Record
Temperature  
Mean Temperature 16 °F -  
Max Temperature 24 °F 26 °F 57 °F (2005)
Min Temperature 8 °F 10 °F -14 °F (2007)
Degree Days  
Heating Degree Days 49    
Moisture  
Dew Point 13 °F    
Average Humidity 81    
Maximum Humidity 93    
Minimum Humidity 68    
Precipitation  
Precipitation 0.01 in - - ()
Sea Level Pressure  
Sea Level Pressure 29.94 in    
Wind  
Wind Speed 12 mph (NNE)    
Max Wind Speed 25 mph    
Max Gust Speed 32 mph    
Visibility 10 miles    
Events Snow    
Averages and records for this station are not official NWS values.
T = Trace of Precipitation, MM = Missing Value Source: NWS Daily Summary

Daily Weather History Graph

Daily Weather History Graph

Search for Another Location

Airport:

Trip Planner

Search our weather history database for the weather conditions in past years. The results will help you decide how hot, cold, wet, or windy it might be!

Date:

Astronomy

Feb. 03, 2013 Rise Set
Actual Time 7:39 AM CST 5:38 PM CST
Civil Twilight 7:09 AM CST 6:09 PM CST
Nautical Twilight 6:35 AM CST 6:43 PM CST
Astronomical Twilight 6:01 AM CST 7:17 PM CST
Moon 1:09 AM CST (2/3) 11:15 AM CST (2/3)
Length of Visible Light 10h 59m
Length of Day
9h 58m
Waning Gibbous, 48% of the Moon is Illuminated
Feb 3
Waning Gibbous
Feb 10
New
Feb 17
First Quarter
Feb 25
Full
Mar 4
Last Quarter

Hourly Weather History & Observations

Time (CST) Temp. Windchill Dew Point Humidity Pressure Visibility Wind Dir Wind Speed Gust Speed Precip Events Conditions
12:13 AM 17.6 °F 2.2 °F 12.2 °F 79% 30.05 in 10.0 mi NNW 17.3 mph 21.9 mph N/A   Mostly Cloudy
12:33 AM 17.6 °F -0.6 °F 12.2 °F 79% 30.06 in 10.0 mi NNW 25.3 mph 32.2 mph N/A Snow Light Snow
12:53 AM 17.6 °F 0.9 °F 12.2 °F 79% 30.07 in 10.0 mi NNW 20.7 mph 26.5 mph N/A Snow Light Snow
1:13 AM 17.6 °F 2.2 °F 12.2 °F 79% 30.07 in 10.0 mi NNW 17.3 mph 23.0 mph N/A Snow Light Snow
1:33 AM 17.6 °F 3.7 °F 12.2 °F 79% 30.07 in 7.0 mi NNW 13.8 mph 24.2 mph N/A Snow Light Snow
2:13 AM 14.0 °F 0.5 °F 10.4 °F 86% 30.08 in 7.0 mi NW 11.5 mph 17.3 mph N/A   Mostly Cloudy
2:33 AM 14.0 °F -1.4 °F 10.4 °F 86% 30.08 in 10.0 mi NW 15.0 mph - N/A   Mostly Cloudy
3:13 AM 12.2 °F -4.3 °F 8.6 °F 85% 30.09 in 10.0 mi NW 16.1 mph - N/A   Scattered Clouds
3:54 AM 10.4 °F -4.1 °F 6.8 °F 85% 30.08 in 10.0 mi NW 11.5 mph - N/A   Clear
4:13 AM 10.4 °F -4.1 °F 6.8 °F 85% 30.08 in 10.0 mi NW 11.5 mph - N/A   Clear
4:34 AM 10.4 °F -3.3 °F 6.8 °F 85% 30.08 in 10.0 mi NW 10.4 mph - N/A   Clear
4:53 AM 10.4 °F -3.3 °F 6.8 °F 85% 30.07 in 10.0 mi NW 10.4 mph - N/A   Clear
5:13 AM 8.6 °F -4.7 °F 5.0 °F 85% 30.07 in 10.0 mi WNW 9.2 mph - N/A   Clear
5:33 AM 8.6 °F -3.7 °F 5.0 °F 85% 30.06 in 10.0 mi WNW 8.1 mph - N/A   Clear
6:13 AM 10.4 °F -0.4 °F 6.8 °F 85% 30.04 in 10.0 mi WNW 6.9 mph - N/A   Overcast
6:33 AM 10.4 °F 0.8 °F 6.8 °F 85% 30.04 in 10.0 mi NW 5.8 mph - N/A   Overcast
6:53 AM 10.4 °F -0.4 °F 6.8 °F 85% 30.04 in 10.0 mi West 6.9 mph - N/A   Overcast
7:13 AM 12.2 °F 0.7 °F 6.8 °F 79% 30.05 in 10.0 mi WNW 8.1 mph - N/A   Overcast
7:33 AM 12.2 °F 1.7 °F 6.8 °F 79% 30.03 in 10.0 mi West 6.9 mph - N/A   Overcast
7:53 AM 12.2 °F -0.2 °F 8.6 °F 85% 30.03 in 10.0 mi WNW 9.2 mph - N/A   Overcast
8:13 AM 14.0 °F 2.9 °F 8.6 °F 79% 30.03 in 10.0 mi WNW 8.1 mph - N/A   Overcast
8:33 AM 14.0 °F 5.1 °F 8.6 °F 79% 30.02 in 10.0 mi West 5.8 mph - N/A   Overcast
8:53 AM 15.8 °F 5.1 °F 10.4 °F 79% 30.03 in 10.0 mi West 8.1 mph - N/A   Overcast
9:13 AM 15.8 °F 5.1 °F 10.4 °F 79% 30.04 in 10.0 mi WNW 8.1 mph - N/A   Overcast
9:33 AM 15.8 °F 6.1 °F 10.4 °F 79% 30.04 in 10.0 mi West 6.9 mph - N/A   Overcast
9:53 AM 15.8 °F 10.2 °F 10.4 °F 79% 30.03 in 10.0 mi NW 3.5 mph - N/A   Overcast
10:13 AM 17.6 °F 12.3 °F 10.4 °F 73% 30.02 in 10.0 mi West 3.5 mph - N/A   Overcast
10:53 AM 19.4 °F 10.4 °F 12.2 °F 74% 30.00 in 10.0 mi WSW 6.9 mph - N/A   Scattered Clouds
11:13 AM 19.4 °F 11.5 °F 12.2 °F 74% 30.00 in 10.0 mi WSW 5.8 mph - N/A   Clear
11:33 AM 21.2 °F 16.4 °F 14.0 °F 74% 29.99 in 10.0 mi WSW 3.5 mph - N/A   Clear
11:53 AM 21.2 °F - 15.8 °F 80% 29.97 in 10.0 mi Calm Calm - N/A   Clear
12:13 PM 23.0 °F - 14.0 °F 68% 29.94 in 10.0 mi Calm Calm - 0.01 in   Scattered Clouds
12:33 PM 23.0 °F 17.0 °F 15.8 °F 74% 29.94 in 10.0 mi ESE 4.6 mph - N/A   Scattered Clouds
12:53 PM 24.8 °F 17.9 °F 15.8 °F 69% 29.92 in 10.0 mi SE 5.8 mph - N/A   Scattered Clouds
1:13 PM 24.8 °F 17.9 °F 15.8 °F 69% 29.91 in 10.0 mi SE 5.8 mph - N/A   Mostly Cloudy
1:33 PM 24.8 °F 17.9 °F 17.6 °F 74% 29.90 in 10.0 mi SE 5.8 mph - N/A   Scattered Clouds
1:53 PM 24.8 °F 16.9 °F 17.6 °F 74% 29.90 in 10.0 mi SE 6.9 mph - N/A   Scattered Clouds
2:13 PM 24.8 °F 16.9 °F 17.6 °F 74% 29.89 in 10.0 mi SE 6.9 mph - N/A   Scattered Clouds
2:53 PM 24.8 °F 15.3 °F 17.6 °F 74% 29.86 in 10.0 mi SE 9.2 mph - N/A   Scattered Clouds
3:13 PM 24.8 °F 15.3 °F 19.4 °F 80% 29.86 in 10.0 mi SE 9.2 mph - N/A   Scattered Clouds
3:33 PM 24.8 °F 15.3 °F 19.4 °F 80% 29.85 in 10.0 mi ESE 9.2 mph - N/A   Scattered Clouds
3:53 PM 24.8 °F 15.3 °F 19.4 °F 80% 29.84 in 10.0 mi ESE 9.2 mph - N/A   Mostly Cloudy
4:13 PM 24.8 °F 14.6 °F 19.4 °F 80% 29.84 in 10.0 mi ESE 10.4 mph - N/A   Scattered Clouds
4:53 PM 24.8 °F 14.6 °F 19.4 °F 80% 29.82 in 10.0 mi ESE 10.4 mph - N/A   Clear
5:13 PM 24.8 °F 14.6 °F 19.4 °F 80% 29.82 in 10.0 mi East 10.4 mph - N/A   Clear
5:53 PM 21.2 °F 8.9 °F 17.6 °F 86% 29.81 in 10.0 mi East 12.7 mph - N/A   Mostly Cloudy
6:13 PM 21.2 °F 11.7 °F 17.6 °F 86% 29.81 in 10.0 mi ESE 8.1 mph - N/A   Scattered Clouds
6:33 PM 21.2 °F 8.3 °F 17.6 °F 86% 29.80 in 10.0 mi ESE 13.8 mph - N/A   Scattered Clouds
6:53 PM 21.2 °F 9.5 °F 17.6 °F 86% 29.79 in 10.0 mi ESE 11.5 mph - N/A   Mostly Cloudy
7:33 PM 21.2 °F 7.8 °F 15.8 °F 80% 29.79 in 10.0 mi East 15.0 mph - N/A   Overcast
7:53 PM 21.2 °F 8.9 °F 15.8 °F 80% 29.79 in 10.0 mi East 12.7 mph 17.3 mph N/A   Overcast
8:14 PM 19.4 °F 7.2 °F 15.8 °F 86% 29.79 in 10.0 mi East 11.5 mph - N/A   Overcast
8:33 PM 19.4 °F 7.2 °F 15.8 °F 86% 29.78 in 10.0 mi East 11.5 mph - N/A   Overcast
8:54 PM 19.4 °F 8.6 °F 15.8 °F 86% 29.80 in 10.0 mi East 9.2 mph - N/A   Overcast
9:13 PM 17.6 °F 5.7 °F 15.8 °F 93% 29.82 in 10.0 mi ENE 10.4 mph 17.3 mph N/A   Mostly Cloudy
9:33 PM 15.8 °F 0.9 °F 12.2 °F 86% 29.81 in 10.0 mi ENE 15.0 mph 21.9 mph N/A   Mostly Cloudy
9:54 PM 15.8 °F 1.4 °F 12.2 °F 86% 29.81 in 10.0 mi ENE 13.8 mph 20.7 mph N/A   Overcast
10:13 PM 15.8 °F 0.9 °F 12.2 °F 86% 29.82 in 10.0 mi ENE 15.0 mph 19.6 mph N/A   Overcast
10:54 PM 14.0 °F -1.4 °F 12.2 °F 93% 29.82 in 10.0 mi ENE 15.0 mph 20.7 mph N/A   Mostly Cloudy
11:13 PM 14.0 °F -0.8 °F 10.4 °F 86% 29.82 in 10.0 mi ENE 13.8 mph 18.4 mph N/A   Overcast
11:33 PM 12.2 °F -3.1 °F 10.4 °F 92% 29.83 in 10.0 mi ENE 13.8 mph 23.0 mph N/A   Overcast
11:54 PM 12.2 °F -3.7 °F 10.4 °F 92% 29.84 in 7.0 mi ENE 15.0 mph 23.0 mph N/A Snow Light Snow